Location: Helsinki
(60.1699°N, 24.9384°E)
Time: 03:04:24
(UTC+02:00)

Transit 4A - Pass Details

Date: 01 November 2020
Orbit: 862 x 982 km, 66.8° (Epoch: 25 November)

Event Time Altitude Azimuth Distance (km) Brightness Sun altitude
Rises 00:56:34 0° 311° (NW) 3,699 11.3 -43.3°
Enters shadow 00:57:28 - 307° (NW) 3,443 11.0 -43.3°
Reaches altitude 10° 01:00:25 10° 289° (WNW) 2,741 - -43.2°
Maximum altitude 01:03:39 14° 258° (WSW) 2,414 - -43.0°
Drops below altitude 10° 01:06:51 10° 228° (SW) 2,713 - -42.9°
Sets 01:10:38 0° 205° (SSW) 3,635 - -42.7°
